TimeCET,TemperatureF,Dew PointF,Humidity,Sea Level PressureIn,VisibilityMPH,Wind Direction,Wind SpeedMPH,Gust SpeedMPH,PrecipitationIn,Events,Conditions,WindDirDegrees,DateUTC
12:00 AM,36,30,71,,,ENE,18.4,,,,,70,2013-11-30 23:00:00
12:00 AM,35.6,30.2,81,30.15,-9999.0,East,17.3,-,N/A,,Clear,80,2013-11-30 23:00:00
12:30 AM,35.6,30.2,81,30.18,6.2,East,9.2,-,N/A,,Partly Cloudy,80,2013-11-30 23:30:00
1:00 AM,35,29,71,,9,ENE,2.3,,,,Partly Cloudy,60,2013-12-01 00:00:00
1:00 AM,35.6,30.2,81,30.15,6.2,Variable,2.3,-,N/A,,Scattered Clouds,0,2013-12-01 00:00:00
1:30 AM,30.2,26.6,86,30.15,6.2,North,4.6,-,N/A,,Scattered Clouds,360,2013-12-01 00:30:00
2:00 AM,29,27,87,,,North,2.3,,,,,350,2013-12-01 01:00:00
2:00 AM,30.2,26.6,86,30.15,6.2,Variable,1.2,-,N/A,,Scattered Clouds,0,2013-12-01 01:00:00
2:30 AM,32.0,28.4,87,30.15,6.2,East,4.6,-,N/A,,Scattered Clouds,90,2013-12-01 01:30:00
3:00 AM,32,28,78,,,East,4.6,,,,,80,2013-12-01 02:00:00
3:00 AM,32.0,28.4,87,30.15,6.2,East,4.6,-,N/A,,Scattered Clouds,90,2013-12-01 02:00:00
3:30 AM,33.8,28.4,81,30.15,6.2,NE,8.1,-,N/A,,Scattered Clouds,50,2013-12-01 02:30:00
4:00 AM,33.8,28.4,81,30.15,6.2,NE,9.2,-,N/A,,Partly Cloudy,50,2013-12-01 03:00:00
4:30 AM,32.0,28.4,87,30.15,6.2,NE,11.5,-,N/A,,Partly Cloudy,50,2013-12-01 03:30:00
5:00 AM,31,27,78,,,NE,8.1,,,,,50,2013-12-01 04:00:00
5:00 AM,32.0,26.6,80,30.15,6.2,NE,8.1,-,N/A,,Partly Cloudy,50,2013-12-01 04:00:00
5:30 AM,32.0,28.4,87,30.12,6.2,East,9.2,-,N/A,,Partly Cloudy,80,2013-12-01 04:30:00
6:00 AM,30,27,82,,,East,6.9,,,,,80,2013-12-01 05:00:00
6:00 AM,30.2,26.6,86,30.12,6.2,East,5.8,-,N/A,,Partly Cloudy,90,2013-12-01 05:00:00
6:30 AM,30.2,26.6,86,30.15,-9999.0,ENE,8.1,-,N/A,,Clear,70,2013-12-01 05:30:00
7:00 AM,30,26,81,,9,East,8.1,,,,,80,2013-12-01 06:00:00
7:00 AM,30.2,26.6,86,30.15,-9999.0,East,6.9,-,N/A,,Clear,80,2013-12-01 06:00:00
7:30 AM,28.4,26.6,93,30.15,-9999.0,East,6.9,-,N/A,,Clear,90,2013-12-01 06:30:00
8:00 AM,28,26,86,,,Calm,Calm,,,,,,2013-12-01 07:00:00
8:00 AM,28.4,26.6,93,30.18,-9999.0,Variable,1.2,-,N/A,,Clear,0,2013-12-01 07:00:00
8:30 AM,28.4,24.8,86,30.18,-9999.0,ENE,5.8,-,N/A,,Clear,70,2013-12-01 07:30:00
9:00 AM,28,26,89,,,SE,3.5,,,,,130,2013-12-01 08:00:00
9:00 AM,28.4,26.6,93,30.18,-9999.0,Variable,2.3,-,N/A,,Clear,0,2013-12-01 08:00:00
9:30 AM,30.2,28.4,93,30.18,-9999.0,Variable,2.3,-,N/A,,Clear,0,2013-12-01 08:30:00
10:00 AM,32.0,28.4,87,30.18,-9999.0,Variable,2.3,-,N/A,,Clear,0,2013-12-01 09:00:00
10:30 AM,35.6,28.4,75,30.21,6.2,East,4.6,-,N/A,,Partly Cloudy,100,2013-12-01 09:30:00
11:00 AM,37,29,62,,,East,16.1,,,,,90,2013-12-01 10:00:00
11:00 AM,35.6,28.4,75,30.21,6.2,East,15.0,-,N/A,,Partly Cloudy,90,2013-12-01 10:00:00
11:30 AM,37.4,30.2,75,30.21,6.2,East,18.4,-,N/A,,Partly Cloudy,80,2013-12-01 10:30:00
12:00 PM,40,29,53,,,ENE,16.1,,,,,70,2013-12-01 11:00:00
12:00 PM,39.2,30.2,70,30.21,6.2,ENE,15.0,-,N/A,,Partly Cloudy,70,2013-12-01 11:00:00
12:30 PM,41.0,28.4,61,30.18,6.2,East,13.8,-,N/A,,Partly Cloudy,90,2013-12-01 11:30:00
1:00 PM,42,29,47,,12,ENE,15.0,,,,Scattered Clouds,60,2013-12-01 12:00:00
1:00 PM,41.0,28.4,61,30.18,6.2,East,13.8,-,N/A,,Partly Cloudy,80,2013-12-01 12:00:00
1:30 PM,42.8,30.2,61,30.15,6.2,ENE,13.8,-,N/A,,Partly Cloudy,70,2013-12-01 12:30:00
2:00 PM,44,28,42,,,ENE,15.0,,,,,60,2013-12-01 13:00:00
2:00 PM,44.6,30.2,57,30.15,6.2,East,12.7,-,N/A,,Partly Cloudy,80,2013-12-01 13:00:00
2:30 PM,44.6,28.4,53,30.15,6.2,East,11.5,-,N/A,,Partly Cloudy,80,2013-12-01 13:30:00
3:00 PM,45,27,36,,,ENE,13.8,,,,,60,2013-12-01 14:00:00
3:00 PM,44.6,28.4,53,30.15,6.2,ENE,12.7,-,N/A,,Partly Cloudy,70,2013-12-01 14:00:00
3:30 PM,44.6,26.6,49,30.12,6.2,ENE,15.0,-,N/A,,Partly Cloudy,60,2013-12-01 14:30:00
4:00 PM,44.6,24.8,46,30.12,6.2,East,15.0,-,N/A,,Partly Cloudy,80,2013-12-01 15:00:00
4:30 PM,44.6,24.8,46,30.12,-9999.0,ENE,15.0,-,N/A,,Clear,70,2013-12-01 15:30:00
5:00 PM,44,25,34,,,ENE,12.7,,,,,70,2013-12-01 16:00:00
5:00 PM,44.6,26.6,49,30.15,-9999.0,East,13.8,-,N/A,,Clear,80,2013-12-01 16:00:00
5:30 PM,42.8,26.6,53,30.15,-9999.0,ENE,12.7,-,N/A,,Clear,70,2013-12-01 16:30:00
6:00 PM,38,26,49,,,NE,5.8,,,,,50,2013-12-01 17:00:00
6:00 PM,39.2,26.6,61,30.15,-9999.0,ENE,5.8,-,N/A,,Clear,60,2013-12-01 17:00:00
6:30 PM,35.6,26.6,70,30.15,-9999.0,ENE,8.1,-,N/A,,Clear,60,2013-12-01 17:30:00
7:00 PM,36,26,56,,12,ENE,8.1,,,,,60,2013-12-01 18:00:00
7:00 PM,35.6,26.6,70,30.15,-9999.0,ENE,8.1,-,N/A,,Clear,70,2013-12-01 18:00:00
7:30 PM,37.4,26.6,65,30.15,-9999.0,ENE,12.7,-,N/A,,Clear,70,2013-12-01 18:30:00
8:00 PM,36,26,57,,,ENE,10.4,,,,,60,2013-12-01 19:00:00
8:00 PM,35.6,26.6,70,30.15,-9999.0,East,10.4,-,N/A,,Clear,80,2013-12-01 19:00:00
8:30 PM,35.6,26.6,70,30.18,-9999.0,East,6.9,-,N/A,,Clear,80,2013-12-01 19:30:00
9:00 PM,34,26,64,,,ENE,9.2,,,,,70,2013-12-01 20:00:00
9:00 PM,33.8,26.6,75,30.18,-9999.0,East,3.5,-,N/A,,Clear,80,2013-12-01 20:00:00
9:30 PM,33.8,26.6,75,30.18,-9999.0,ENE,6.9,-,N/A,,Clear,70,2013-12-01 20:30:00
10:00 PM,33.8,26.6,75,30.21,-9999.0,East,6.9,-,N/A,,Clear,100,2013-12-01 21:00:00
10:30 PM,33.8,26.6,75,30.21,-9999.0,East,6.9,-,N/A,,Clear,90,2013-12-01 21:30:00
11:00 PM,29,24,74,,,South,4.6,,,,,170,2013-12-01 22:00:00
11:00 PM,28.4,24.8,86,30.21,-9999.0,South,4.6,-,N/A,,Clear,180,2013-12-01 22:00:00
11:30 PM,28.4,24.8,86,30.21,-9999.0,SSW,3.5,-,N/A,,Clear,200,2013-12-01 22:30:00